Location: Newark
(33.9035°S, 18.4112°E)
Time: 01:23:41
(UTC+00:00)

STARLINK-1106 - Pass Details

Date: 21 January 2020
Orbit: 531 x 533 km, 53.0° (Epoch: 17 February)

Event Time Altitude Azimuth Distance (km) Brightness Sun altitude
Exits shadow 02:00:49 56° 12° (NNE) 612 3.6 -20.6°
Maximum altitude 02:01:16 62° 48° (NE) 581 3.6 -20.5°
Drops below altitude 10° 02:05:11 10° 129° (SE) 1,749 7.4 -19.9°
Sets 02:07:25 0° 132° (SE) 2,647 8.8 -19.6°
